Weather History for Klawock, AK

Change the Weather History Date:

Wednesday, February 6, 2013

  Actual Average Record
Temperature  
Mean Temperature 37 °F -  
Max Temperature 44 °F 38 °F 46 °F (1998)
Min Temperature 30 °F 29 °F 16 °F (2014)
Degree Days  
Heating Degree Days 28    
Moisture  
Dew Point 35 °F    
Average Humidity 87    
Maximum Humidity 96    
Minimum Humidity 76    
Precipitation  
Precipitation 0.03 in - - ()
Sea Level Pressure  
Sea Level Pressure 29.61 in    
Wind  
Wind Speed 6 mph (NNE)    
Max Wind Speed 10 mph    
Max Gust Speed 17 mph    
Visibility 10 miles    
Events Rain    
Averages and records for this station are not official NWS values.
T = Trace of Precipitation, MM = Missing Value Source: NWS Daily Summary

Daily Weather History Graph

Daily Weather History Graph

Search for Another Location

Airport:

Trip Planner

Search our weather history database for the weather conditions in past years. The results will help you decide how hot, cold, wet, or windy it might be!

Date:

Astronomy

Feb. 06, 2013 Rise Set
Actual Time 7:34 AM AKST 4:38 PM AKST
Civil Twilight 6:55 AM AKST 5:18 PM AKST
Nautical Twilight 6:11 AM AKST 6:02 PM AKST
Astronomical Twilight 5:28 AM AKST 6:45 PM AKST
Moon 4:47 AM AKST (2/6) 12:43 PM AKST (2/6)
Length of Visible Light 10h 23m
Length of Day
9h 04m
Waning Crescent, 15% of the Moon is Illuminated
Feb 6
Waning Crescent
Feb 9
New
Feb 17
First Quarter
Feb 25
Full
Mar 4
Last Quarter

Hourly Weather History & Observations

Time (AKST) Temp. Windchill Dew Point Humidity Pressure Visibility Wind Dir Wind Speed Gust Speed Precip Events Conditions
12:53 AM 37.9 °F 34.4 °F 36.0 °F 93% 29.44 in 10.0 mi ENE 4.6 mph - N/A   Mostly Cloudy
1:53 AM 39.0 °F 34.0 °F 35.1 °F 86% 29.44 in 10.0 mi North 6.9 mph - N/A   Overcast
3:53 AM 39.0 °F 32.3 °F 35.1 °F 86% 29.46 in 10.0 mi NNE 10.4 mph - N/A   Mostly Cloudy
4:53 AM 39.0 °F 32.8 °F 35.1 °F 86% 29.48 in 10.0 mi NNE 9.2 mph - N/A   Mostly Cloudy
5:53 AM 39.0 °F 34.8 °F 35.1 °F 86% 29.49 in 10.0 mi NE 5.8 mph - 0.01 in Rain Light Rain
6:53 AM 37.9 °F 32.1 °F 35.1 °F 89% 29.51 in 10.0 mi NNE 8.1 mph - 0.01 in Rain Light Rain
7:53 AM 37.9 °F 31.5 °F 35.1 °F 89% 29.52 in 10.0 mi NNE 9.2 mph - 0.00 in   Overcast
8:53 AM 39.0 °F 32.3 °F 35.1 °F 86% 29.54 in 10.0 mi NNE 10.4 mph - N/A   Scattered Clouds
10:53 AM 41.0 °F 35.2 °F 36.0 °F 82% 29.58 in 10.0 mi NNE 9.2 mph 16.1 mph N/A   Mostly Cloudy
11:53 AM 43.0 °F 37.7 °F 37.0 °F 80% 29.58 in 10.0 mi NNE 9.2 mph - N/A   Mostly Cloudy
12:53 PM 44.1 °F 40.1 °F 37.0 °F 76% 29.59 in 10.0 mi NE 6.9 mph - N/A   Partly Cloudy
1:53 PM 43.0 °F 37.7 °F 37.0 °F 80% 29.60 in 10.0 mi NNE 9.2 mph - N/A   Overcast
2:20 PM 42.8 °F 37.0 °F 35.6 °F 76% 29.60 in 10.0 mi NNE 10.4 mph 17.3 mph N/A   Overcast
2:53 PM 42.1 °F 36.6 °F 37.0 °F 82% 29.61 in 10.0 mi North 9.2 mph - 0.00 in Rain Light Rain
3:53 PM 41.0 °F 34.7 °F 37.0 °F 86% 29.62 in 10.0 mi NNE 10.4 mph 16.1 mph 0.00 in Rain Light Rain
4:53 PM 41.0 °F 36.4 °F 36.0 °F 82% 29.64 in 10.0 mi NNE 6.9 mph - 0.00 in   Overcast
5:53 PM 39.9 °F 37.8 °F 37.0 °F 89% 29.66 in 10.0 mi NE 3.5 mph - 0.00 in Rain Light Rain
6:53 PM 37.9 °F - 36.0 °F 93% 29.68 in 10.0 mi Calm Calm - 0.01 in   Mostly Cloudy
7:40 PM 37.4 °F 34.9 °F 35.6 °F 93% 29.69 in 10.0 mi NNE 3.5 mph - N/A   Overcast
7:51 PM 37.4 °F 34.9 °F 35.6 °F 93% 29.69 in 10.0 mi NE 3.5 mph - N/A   Overcast
7:53 PM 37.0 °F - 35.1 °F 93% 29.69 in 10.0 mi Calm Calm - N/A   Overcast
8:53 PM 36.0 °F 31.1 °F 34.0 °F 93% 29.70 in 10.0 mi NE 5.8 mph - N/A   Clear
9:53 PM 33.1 °F - 32.0 °F 96% 29.72 in 10.0 mi Calm Calm - N/A   Clear
10:53 PM 32.0 °F - 30.0 °F 92% 29.74 in 10.0 mi Calm Calm - N/A   Clear
11:35 PM 30.2 °F - 28.4 °F 93% 29.75 in 10.0 mi Calm Calm - N/A   Partly Cloudy
11:53 PM 30.9 °F - 28.9 °F 92% 29.75 in 10.0 mi Calm Calm - N/A   Partly Cloudy